Showing default

OPS 9343 (IDSCS 21), 3286

Orbit data source: Space-Track

OPS 9343 (IDSCS 21), 3286 is a payload satellite owned by SAMSO (US) in GEO that was launched on Thu, 13 Jun 1968 UTC via a TITAN IIIC launch vehicle from the Air Force Eastern Test Range (AFETR). Payload-class satellites include a variety of spacecraft equipped with specific instruments for various scientific and technological missions. These include communications satellites like Starlink; space stations such as the ISS; scientific satellites like the Hubble; Earth observation satellites from companies like Planet Labs, Umbra, and HawkEye 360; GPS; miniature CubeSats for education and research; and military/defense satellites.

Loading next visibility...
Identifier
3286, 1968-050C
Orbit
GEO
Country
Flag of USUS
Related business
Manufacturer
Philco-Ford
Mission
Non-operational spacecraft
Bus & Motor
IDCSP, Unknown motor
Mass
45 kg wet, 45 kg dry
Launch date (UTC)
1968-06-13 (57 years ago)
Launch vehicle
TITAN IIIC
Launch site
Air Force Eastern Test Range (AFETR)
Object type
Payload
Rocket body
Debris
Shape & HBR
Unknown
Radar Cross Section
Medium (>0.1 m² and <1 m²)

Expand to show TLE details & history
Last TLE update: 22 hours ago

TLE from 22 hours ago
0 OPS 9343 (IDSCS 21)
1 03286U 68050C   25301.50680946 -.00000044  00000-0  00000-0 0  9996
2 03286   6.7464  54.0448 0020453 146.9609 193.2072  1.07757476 44952
Epoch: 2025-10-28T12:09Z
TLE epoch observation values (Epoch: 2025-10-28T12:09:48.337Z)
Latitude
-2.28378°
Longitude
174.71016°
Altitude
33,890.687 km
Speed
3.143 km/s
True Right ascension
02h 17m 01s
True Declination
-2° 16' 53"
Sunlit
Object was in daylight at epoch
Visualization orbit readout
Latitude
Unknown
Longitude
Unknown
Altitude
Unknown
Speed
Unknown
Apparent Right ascension
Unknown
Apparent Declination
Unknown
Sunlit
N/A
Visualization observer readout
Local Sidereal Time
06:01:53
Azimuth
Unknown
Elevation
Unknown
Doppler factor
Unknown
Orbital elements
Apogee altitude
33,893.825 km
Perigee altitude
33,729.425 km
Semi-major axis
40,189.762 km
Eccentricity
0.00205
Inclination
6.7464°
RAAN
54.0448°
Arg. of periapsis
146.9609°
True anomaly
193.15378°
Mean anomaly
193.2072°
Eccentric anomaly
193.18048°
Mean motion
0.26938 °/min
Orbital period
1,336.39 mins
BSTAR
0
Loading maneuver chart data...
Computing Atmospheric mass density...
Loading historical data...
Loading historical data...
Loading historical data...
Loading historical data...
Loading historical data...
Loading historical data...
Loading historical data...

Documentation

Showing up to 5 results
|